Weather History for CWBZ - July, 2013

Change the Weather History Date:

Tuesday, July 23, 2013

  Actual Average Record
Temperature  
Mean Temperature 74 °F -  
Max Temperature 86 °F - - ()
Min Temperature 62 °F - - ()
Cooling Degree Days 9    
Growing Degree Days 24 (Base 50)    
Moisture  
Dew Point 65 °F    
Average Humidity 76    
Maximum Humidity 97    
Minimum Humidity 53    
Precipitation  
Precipitation 0.00 in - - ()
Sea Level Pressure  
Sea Level Pressure 29.63 in    
Wind  
Wind Speed 3 mph ()    
Max Wind Speed 9 mph    
Max Gust Speed -    
T = Trace of Precipitation, MM = Missing Value Source: Averaged Metar Reports

Daily Weather History Graph

Daily Weather History Graph

Search for Another Location

Airport or City:

Trip Planner

Search our weather history database for the weather conditions in past years. The results will help you decide how hot, cold, wet, or windy it might be!

Date:

Astronomy

Jul. 23, 2013 Rise Set
Actual Time 5:32 AM EDT 8:34 PM EDT
Civil Twilight 4:57 AM EDT 9:09 PM EDT
Nautical Twilight 4:12 AM EDT 9:53 PM EDT
Astronomical Twilight 3:18 AM EDT 10:47 PM EDT
Moon 8:53 PM EDT (7/23) 6:43 AM EDT (7/23)
Length of Visible Light 16h 11m
Length of Day
15h 01m
Full, 99% of the Moon is Illuminated
Jul 23
Full
Jul 29
Last Quarter
Aug 6
New
Aug 14
First Quarter
Aug 20
Full

Hourly Weather History & Observations

Time (EDT) Temp. Heat Index Dew Point Humidity Pressure Visibility Wind Dir Wind Speed Gust Speed Precip Events Conditions
12:00 AM 63.5 °F - 62.6 °F 97% 29.80 in - NE 1.2 mph - N/A   Unknown
1:00 AM 65.3 °F - 60.6 °F 85% 29.78 in - ENE 3.5 mph - N/A   Unknown
2:00 AM 64 °F - 62 °F 93% 29.77 in - NE 1.2 mph - -  
2:00 AM 64.4 °F - 62.4 °F 93% 29.77 in - NE 1.2 mph - N/A   Unknown
3:00 AM 66.0 °F - 61.7 °F 86% 29.74 in - East 3.5 mph - N/A   Unknown
4:00 AM 64.9 °F - 63.1 °F 94% 29.71 in - NE 2.3 mph - N/A   Unknown
5:00 AM 64.8 °F - 62.6 °F 93% 29.70 in - East 2.3 mph - N/A   Unknown
6:00 AM 63.9 °F - 62.6 °F 96% 29.70 in - NNE 2.3 mph - N/A   Unknown
7:00 AM 64.9 °F - 63.3 °F 94% 29.69 in - SE 1.2 mph - N/A   Unknown
8:00 AM 67 °F - 64 °F 88% 29.68 in - SE 1.2 mph - -  
8:00 AM 67.3 °F - 64.2 °F 90% 29.68 in - SE 1.2 mph - N/A   Unknown
9:00 AM 70.9 °F - 66.0 °F 85% 29.66 in - North 1.2 mph - N/A   Unknown
10:00 AM 73.6 °F - 68.2 °F 83% 29.65 in - NE 1.2 mph - N/A   Unknown
11:00 AM 77.4 °F - 69.1 °F 76% 29.64 in - West 4.6 mph - N/A   Unknown
12:00 PM 78.8 °F - 71.1 °F 77% 29.63 in - WSW 5.8 mph - N/A   Unknown
1:00 PM 81.3 °F 84.3 °F 68.4 °F 65% 29.60 in - SW 4.6 mph - N/A   Unknown
2:00 PM 83 °F - 69 °F 53% 29.57 in - SSW 3.5 mph - -  
2:00 PM 82.9 °F 86.3 °F 68.5 °F 62% 29.57 in - SSW 3.5 mph - N/A   Unknown
3:00 PM 84.9 °F 87.9 °F 67.6 °F 56% 29.55 in - West 4.6 mph - N/A   Unknown
4:00 PM 85.3 °F 88.8 °F 68.4 °F 57% 29.53 in - WSW 4.6 mph - N/A   Unknown
5:00 PM 85.3 °F 89.4 °F 69.4 °F 59% 29.52 in - West 5.8 mph - N/A   Unknown
6:00 PM 84.0 °F 87.8 °F 69.1 °F 61% 29.52 in - WSW 8.1 mph - N/A   Unknown
7:00 PM 81.7 °F 84.0 °F 66.7 °F 60% 29.51 in - WSW 9.2 mph - N/A   Unknown
8:00 PM 78 °F - 65 °F 56% 29.51 in - WSW 5.8 mph - -  
8:00 PM 77.5 °F - 65.1 °F 65% 29.51 in - WSW 5.8 mph - N/A   Unknown
9:00 PM 76.1 °F - 64.9 °F 68% 29.52 in - WSW 6.9 mph - N/A   Unknown
10:00 PM 74.3 °F - 63.9 °F 70% 29.52 in - SW 5.8 mph - N/A   Unknown
11:00 PM 73.2 °F - 64.2 °F 73% 29.51 in - SW 8.1 mph - N/A   Unknown